This is the latest recevied weather packets stored in our database for station/object K3RUP-1. If no packets are shown the sender has not sent any weather packets the latest 10 day(s).
| Time | Temp. | Humidity | Pressure | Rain* | Wind** | Luminosity | Snow |
|---|---|---|---|---|---|---|---|
| 1787863987 | 29.44° C | 77% | 1012.5 hPa | 0 mm | - | 140 W/m² | - |
| 1787863686 | 29.44° C | 77% | 1012.3 hPa | 0 mm | - | 256 W/m² | - |
| 1787863385 | 29.44° C | 77% | 1012.5 hPa | 0 mm | - | 221 W/m² | - |
| 1787863081 | 29.44° C | 78% | 1012.8 hPa | 0 mm | - | 243 W/m² | - |
| 1787862776 | 29.44° C | 77% | 1012.6 hPa | 0 mm | - | 138 W/m² | - |
| 1787862475 | 29.44° C | 77% | 1012.6 hPa | 0 mm | - | 182 W/m² | - |
| 1787862171 | 29.44° C | 78% | 1012.7 hPa | 0 mm | - | 164 W/m² | - |
| 1787861866 | 29.44° C | 77% | 1013 hPa | 0 mm | - | 151 W/m² | - |
| 1787861564 | 29.44° C | 77% | 1013 hPa | 0 mm | - | 158 W/m² | - |
| 1787861258 | 29.44° C | 78% | 1012.9 hPa | 0 mm | - | 148 W/m² | - |
| 1787860953 | 29.44° C | 77% | 1013 hPa | 0 mm | - | 154 W/m² | - |
| 1787860648 | 29.44° C | 78% | 1012.9 hPa | 0 mm | - | 158 W/m² | - |
| 1787860342 | 29.44° C | 77% | 1013 hPa | 0 mm | - | 191 W/m² | - |
| 1787860038 | 29.44° C | 78% | 1013 hPa | 0 mm | - | 178 W/m² | - |
| 1787859733 | 29.44° C | 78% | 1013.2 hPa | 0 mm | - | 168 W/m² | - |
| 1787859432 | 28.89° C | 78% | 1013.2 hPa | 0 mm | - | 174 W/m² | - |
| 1787859127 | 28.89° C | 77% | 1013.3 hPa | 0 mm | - | 173 W/m² | - |
| 1787858824 | 29.44° C | 77% | 1013.5 hPa | 0 mm | - | 264 W/m² | - |
| 1787858519 | 29.44° C | 77% | 1013.6 hPa | 0 mm | - | 275 W/m² | - |
| 1787858218 | 30° C | 78% | 1013.4 hPa | 0 mm | - | 369 W/m² | - |
| 1787857915 | 30° C | 78% | 1013.2 hPa | 0 mm | - | 400 W/m² | - |
| 1787857610 | 30.56° C | 77% | 1013.3 hPa | 0 mm | - | 354 W/m² | - |
| 1787857310 | 30.56° C | 77% | 1013.2 hPa | 0 mm | - | 468 W/m² | - |
| 1787857008 | 30.56° C | 77% | 1013.3 hPa | 0 mm | - | 389 W/m² | - |
| 1787856709 | 30.56° C | 75% | 1013.1 hPa | 0 mm | - | 345 W/m² | - |
* Rain latest hour (hover to see other rain measurements)
** Current wind speed in m/s (hover to see current wind gust speed)